Location: Ripley
(48.3812°N, 115.4473°W)
Time: 11:29:53
(UTC+00:00)

AIST 2D - Pass Details

Date: 04 July 2022
Orbit: 433 x 444 km, 97.0° (Epoch: 09 August)

Event Time Altitude Azimuth Distance (km) Brightness Sun altitude
Rises 04:40:49 0° 23° (NNE) 2,429 ? -7.6°
Reaches altitude 10° 04:43:05 10° 37° (NE) 1,556 ? -7.8°
Maximum altitude 04:45:53 25° 95° (E) 930 ? -8.1°
Enters shadow 04:48:29 11° 151° (SSE) 1,479 ? -8.4°
